Regional Weather Roundup
Issued by NWS Cleveland, OH

Home | Current Version | Previous Version | Graphics & Text | Print | Product List | Glossary On
Versions: 1 2 3 4 5 6 7 8 9 10 11 12 13 14 15 16 17 18 19 20 21 22 23 24 25 26 27 28 29 30 31 32 33 34 35 36 37 38 39 40 41 42 43 44 45 46 47 48 49 50
000
ASUS41 KCLE 241102
RWRCLE
OHIO REGIONAL WEATHER ROUNDUP
NATIONAL WEATHER SERVICE CLEVELAND, OH
700 AM EDT WED MAY 24 2017

NOTE: "FAIR" INDICATES FEW OR NO CLOUDS BELOW 12,000 FEET WITH NO
SIGNIFICANT WEATHER AND/OR OBSTRUCTIONS TO VISIBILITY.

OHZ001>008-015>018-024>027-034-035-043-044-241200-
   NORTHWEST OHIO

CITY           SKY/WX    TMP DP  RH WIND       PRES   REMARKS
DEFIANCE       CLOUDY    55  49  80 E5        29.58R
FINDLAY        CLOUDY    60  55  83 SE6       29.57R
TOLEDO EXPRESS CLOUDY    57  53  86 NE3       29.58S
TOLEDO EXEC    CLOUDY    59  56  89 E5        29.60R
LIMA           CLOUDY    60  58  92 SE7       29.57S
$$

OHZ009>014-019>023-028>033-038-089-241200-
   NORTHEAST OHIO

CITY           SKY/WX    TMP DP  RH WIND       PRES   REMARKS
CLE-HOPKINS    MOCLDY    63  56  78 SE8       29.63S
CLE-LAKEFRONT  PTCLDY    62  54  74 SE8       29.60S
CUY CO. ARPT   MOCLDY    61  55  82 SE9       29.63
LORAIN-ELYRIA    N/A    N/A N/A N/A MISG      29.61S
ASHTABULA      CLOUDY    57  52  83 SE6       29.66R
AKRON-CANTON   CLOUDY    60  54  80 E7        29.64R
WOOSTER        CLOUDY    59  56  89 SE5       29.63R
MANSFIELD      CLOUDY    59  59 100 SE6       29.61S
YOUNGSTOWN     LGT RAIN  56  54  93 E8        29.67R FOG
$$

OHZ042-051>053-060>062-070>072-077>081-241200-
  SOUTHWEST OHIO

CITY           SKY/WX    TMP DP  RH WIND       PRES   REMARKS
CINC-COVINGTON CLOUDY    60  58  92 E7        29.53F
CINC-LUNKEN    CLOUDY    60  59  96 NE3       29.55F
HAMILTON       MOCLDY    60  60 100 E5        29.55F
DAYTON         MOCLDY    59  58  96 SE8       29.57S FOG
WRIGHT-PAT AFB MOCLDY    60  60 100 CALM      29.56S
DAYTON GENERAL MOCLDY    59  58  96 E5        29.55F
WILMINGTON     PTCLDY    58  58 100 CALM      29.57S FOG
$$

OHZ036-037-039>041-045>050-054>059-063>069-073>076-082>088-241200-
  CENTRAL AND SOUTHEAST OHIO

CITY           SKY/WX    TMP DP  RH WIND       PRES   REMARKS
COLUMBUS       CLOUDY    61  60  97 E7        29.58F
OSU AIRPORT    MOCLDY    59  59 100 CALM      29.59R
BOLTON FIELD   NOT AVBL
RICKENBACK AFB CLOUDY    59  59 100 E5        29.59R
NEWARK         CLOUDY    61  58  90 E6        29.59F
MARION         CLOUDY    60  57  89 SE6       29.59S
LANCASTER      CLOUDY    62  59  90 SE3       29.60R
ZANESVILLE     CLOUDY    60  56  86 E6        29.60F
NEW PHILLY     NOT AVBL
$$



USA.gov is the U.S. government's official web portal to all federal, state and local government web resources and services.